Find Starlink 32832

NORAD ID: 63040 Int'l Des: 2025-034 Owner: SPXS Country: US Constellation: starlink operational
LEOCIRCULAR

リアルタイム位置

3D地球を読み込み中...

Starlink 32832について

説明を読み込み中...

次回通過

Passes for default location (London). Set your location on the main map for personalized predictions.

高度履歴

Loading altitude history...

軌道要素

1 63040U 25034M 26107.13799830 .00009490 00000-0 33205-3 0 9991
2 63040 53.1580 79.5154 0001618 76.6985 283.4196 15.30207416 64973
Epoch: Apr 17, 2026 • Age: 13 hours

現在のステータス

高度 475.7 km
速度 7.63 km/s
衛星直下点 4.51°N, 158.59°E
打ち上げ日 Feb 18, 2025
運用期間 1.1 years
タイプ internet

技術仕様

分類 Payload
質量 730.00 kg
乾燥質量 700.00 kg
総質量 730.00 kg
長さ 0.30 m
直径 4.10 m
スパン 29.00 m
形状 Box + pan
製造者 SPXS
バスタイプ Starlink V2M
フェーズステータス In Orbit
所有者/国 SPXS/US

Most Searched